Location: Wells
(51.2093°N, 2.6446°W)
Time: 03:46:25
(UTC+00:00)

O/OREOS (USA 219) - Visible Passes

Search period start: 08 March 2026 00:00
Search period end: 18 March 2026 00:00
Orbit: 576 x 600 km, 72.0° (Epoch: 7 March)

Date Brightness Start Highest point End Pass type
(mag) Time Alt. Az. Time Alt. Az. Time Alt. Az.
8 Mar ? 19:31:52 10° NNW 19:36:11 57° ENE 19:38:29 25° SE visible
8 Mar ? 21:11:03 10° NW 21:14:13 20° WSW 21:15:01 19° WSW visible
9 Mar ? 19:39:14 10° NNW 19:43:37 85° ENE 19:46:28 21° SSE visible
9 Mar ? 21:19:19 10° WNW 21:21:22 13° W 21:23:01 11° WSW visible
10 Mar ? 19:46:39 10° NNW 19:50:59 64° WSW 19:54:34 14° SSE visible
11 Mar ? 19:54:10 10° NW 19:58:16 42° WSW 20:02:20 10° S visible
12 Mar ? 20:01:49 10° NW 20:05:31 28° WSW 20:09:11 10° SSW visible
13 Mar ? 20:09:39 10° WNW 20:12:41 19° WSW 20:15:42 10° SSW visible
14 Mar ? 20:18:00 10° WNW 20:19:48 12° W 20:21:34 10° WSW visible
15 Mar ? 18:45:07 10° NW 18:49:24 60° WSW 18:53:39 10° SSE visible
16 Mar ? 18:52:37 10° NW 18:56:40 39° WSW 19:00:40 10° S visible
17 Mar ? 19:00:14 10° NW 19:03:51 26° WSW 19:07:27 10° SSW visible
